Location: Limerick
(52.6800°N, 8.6400°W)
Time: 06:07:29
(UTC+00:00)

ISS - All Passes

Search period start: 22 February 2017 00:00
Search period end: 04 March 2017 00:00
Orbit: 399 x 408 km, 51.6° (Epoch: 22 February)

Date Brightness Start Highest point End Pass type
(mag) Time Alt. Az. Time Alt. Az. Time Alt. Az.
22 Feb - 10:59:34 10° SW 11:02:38 35° SSE 11:05:41 10° E daylight
22 Feb - 12:35:35 10° W 12:38:53 73° S 12:42:11 10° E daylight
22 Feb - 14:12:00 10° W 14:15:15 57° SSW 14:18:30 10° ESE daylight
22 Feb - 15:48:49 10° W 15:51:17 20° SW 15:53:44 10° SSE daylight
23 Feb - 10:07:30 10° SSW 10:10:16 25° SSE 10:13:03 10° E daylight
23 Feb - 11:43:07 10° WSW 11:46:24 65° S 11:49:41 10° E daylight
23 Feb - 13:19:29 10° W 13:22:47 68° S 13:26:03 10° ESE daylight
23 Feb - 14:56:04 10° W 14:58:57 28° SSW 15:01:49 10° SSE daylight
24 Feb - 09:15:42 10° S 09:17:57 17° SE 09:20:11 10° ESE daylight
24 Feb - 10:50:42 10° WSW 10:53:55 52° SSE 10:57:09 10° E daylight
24 Feb - 12:26:58 10° W 12:30:17 75° S 12:33:34 10° E daylight
24 Feb - 14:03:27 10° W 14:06:33 39° SSW 14:09:40 10° SE daylight
24 Feb - 15:41:18 10° WSW 15:42:22 11° SW 15:43:25 10° SSW daylight
25 Feb - 08:24:38 10° SSE 08:25:40 11° SE 08:26:43 10° ESE daylight
25 Feb - 09:58:22 10° SW 10:01:28 39° SSE 10:04:35 10° E daylight
25 Feb - 11:34:27 10° W 11:37:45 75° S 11:41:03 10° E daylight
25 Feb - 13:10:52 10° W 13:14:06 52° SSW 13:17:19 10° ESE daylight
25 Feb - 14:47:49 10° W 14:50:05 17° SW 14:52:20 10° S daylight
26 Feb - 09:06:10 10° SSW 09:09:03 28° SSE 09:11:57 10° E daylight
26 Feb - 10:41:56 10° WSW 10:45:13 68° S 10:48:31 10° E daylight
26 Feb - 12:18:19 10° W 12:21:36 65° SSW 12:24:52 10° ESE daylight
26 Feb - 13:54:58 10° W 13:57:44 25° SSW 14:00:30 10° SSE daylight
27 Feb - 08:14:13 10° SSW 08:16:40 19° SE 08:19:08 10° E daylight
27 Feb - 09:49:27 10° WSW 09:52:42 56° SSE 09:55:57 10° E daylight
27 Feb - 11:25:46 10° W 11:29:04 73° S 11:32:22 10° E daylight
27 Feb - 13:02:15 10° W 13:05:19 35° SSW 13:08:21 10° SE daylight
28 Feb - 07:22:46 10° S 07:24:21 13° SE 07:25:55 10° ESE daylight
28 Feb - 08:57:03 10° SW 09:00:12 43° SSE 09:03:22 10° E daylight
28 Feb - 10:33:11 10° W 10:36:30 76° S 10:39:49 10° E daylight
28 Feb - 12:09:38 10° W 12:12:50 48° SSW 12:16:02 10° ESE daylight
28 Feb - 13:46:45 10° WSW 13:48:45 15° SW 13:50:44 10° S daylight
01 Mar - 08:04:45 10° SW 08:07:43 31° SSE 08:10:42 10° E daylight
01 Mar - 09:40:38 10° WSW 09:43:56 71° S 09:47:14 10° E daylight
01 Mar - 11:17:02 10° W 11:20:19 61° SSW 11:23:34 10° ESE daylight
01 Mar - 12:53:44 10° W 12:56:23 22° SSW 12:59:02 10° SSE daylight
02 Mar - 07:12:41 10° SSW 07:15:17 22° SSE 07:17:54 10° E daylight
02 Mar - 08:48:06 10° WSW 08:51:21 60° SSE 08:54:38 10° E daylight
02 Mar - 10:24:26 10° W 10:27:44 71° S 10:31:01 10° ESE daylight
02 Mar - 12:00:57 10° W 12:03:57 32° SSW 12:06:55 10° SE daylight
03 Mar - 06:20:58 10° S 06:22:55 15° SE 06:24:51 10° ESE visible
03 Mar - 07:55:37 10° SW 07:58:48 47° SSE 08:02:00 10° E daylight
03 Mar - 09:31:51 10° W 09:35:08 76° S 09:38:27 10° E daylight
03 Mar - 11:08:16 10° W 11:11:27 44° SSW 11:14:36 10° SE daylight
03 Mar - 12:45:39 10° WSW 12:47:18 13° SW 12:48:59 10° S daylight
